Home   Weather   Lisbon   Past weeks

Flag for Portugal Past Weather in Lisbon, Portugal — Yesterday and Last 2 Weeks

Now
50 °F

Passing clouds.


Feels Like: 50 °F
Forecast: 50 / 75 °F
Wind: 2 mph from West

Location: Lisbon Portela Airport

Current Time: May 1, 2017 at 1:53:36 am

Latest Report: May 1, 2017 at 1:00 am


Visibility: N/A

Pressure: 30.15 "Hg

Humidity: 82%

Dew Point: 45 °F

Location of LisbonLocation

Past Weather in Lisbon — Graph

°F

Lisbon Temperature Yesterday

Maximum temperature yesterday: 63 °F (at 11:00 am)
Minimum temperature yesterday: 52 °F (at 11:00 pm)
Average temperature yesterday: 58 °F

High & Low Weather Summary for the Past Weeks

 TemperatureHumidityPressure
High81 °F (Apr 17, 3:30 pm)100% (Apr 30, 8:30 am)30.15 "Hg (Apr 30, 8:30 am)
Low46 °F (Apr 27, 7:00 am)16% (Apr 17, 4:00 pm)29.77 "Hg (Apr 19, 3:30 am)
Average63 °F62%29.94 "Hg
* Reported Apr 16 12:00 am — May 1 12:30 am, Lisbon, Weather by CustomWeather, © 2017

Note: Actual official high and low records may vary slightly from our data, if they occured in-between our weather recording intervals... More about our weather records

Advertising

Lisbon Weather History for the Previous 24 Hours

Scroll right to see more
 ConditionsComfort  
Time TempWeatherWind HumidityBarometerVisibility
12:30 am
Mon, May 1
50 °FPassing clouds.1 mph76%30.15 "HgN/A
12:00 am50 °FPassing clouds.1 mph76%30.15 "HgN/A
11:30 pm
Sun, Apr 30
52 °FPassing clouds.2 mph77%30.15 "HgN/A
11:00 pm52 °FPassing clouds.2 mph77%30.15 "HgN/A
10:30 pm54 °FPassing clouds.3 mph72%30.12 "HgN/A
10:00 pm54 °FPassing clouds.6 mph72%30.12 "HgN/A
9:30 pm54 °FPassing clouds.8 mph72%30.12 "HgN/A
9:00 pm55 °FPassing clouds.7 mph72%30.09 "HgN/A
8:30 pm57 °FPassing clouds.8 mph63%30.09 "HgN/A
8:00 pm57 °FPassing clouds.9 mph63%30.07 "HgN/A
7:30 pm59 °FPassing clouds.8 mph59%30.07 "HgN/A
7:00 pm59 °FPassing clouds.9 mph59%30.07 "HgN/A
6:30 pm61 °FPassing clouds.12 mph55%30.07 "HgN/A
6:00 pm61 °FPassing clouds.13 mph55%30.04 "HgN/A
5:30 pm61 °FPassing clouds.12 mph52%30.04 "HgN/A
5:00 pm63 °FPassing clouds.12 mph49%30.04 "HgN/A
4:30 pm61 °FPassing clouds.14 mph55%30.04 "HgN/A
4:00 pm63 °FPassing clouds.14 mph49%30.04 "HgN/A
3:30 pm61 °FPassing clouds.14 mph63%30.04 "HgN/A
3:00 pm63 °FScattered clouds.14 mph59%30.01 "HgN/A
2:30 pm61 °FSprinkles. Scattered clouds.13 mph63%30.01 "HgN/A
2:00 pm61 °FBroken clouds.10 mph72%30.01 "HgN/A
1:30 pm57 °FScattered showers. Partly sunny.12 mph82%30.01 "HgN/A
1:00 pm61 °FScattered clouds.16 mph68%30.01 "HgN/A
12:30 pm63 °FScattered clouds.12 mph59%29.98 "HgN/A
12:00 pm61 °FScattered clouds.13 mph68%29.98 "HgN/A
11:30 am61 °FPartly sunny.14 mph72%29.98 "HgN/A
11:00 am63 °FPartly sunny.10 mph68%29.98 "HgN/A
10:30 am61 °FScattered clouds.10 mph72%29.95 "HgN/A
10:00 am59 °FScattered clouds.8 mph82%29.95 "HgN/A
9:30 am57 °FPassing clouds.3 mph82%29.95 "HgN/A
9:00 am54 °FLight rain. Partly sunny.8 mph94%29.95 "HgN/A
8:30 am57 °FLight rain. Fog.20 mph100%29.92 "Hg1 mi
8:00 am57 °FLight rain. Fog.15 mph94%29.89 "Hg2 mi
7:30 am57 °FLight rain. Fog.18 mph94%29.92 "Hg2 mi
7:00 am57 °FLight rain. Partly sunny.20 mph88%29.89 "Hg4 mi
6:30 am59 °FPassing clouds.16 mph77%29.89 "HgN/A
6:00 am59 °FPassing clouds.20 mph77%29.89 "HgN/A
5:30 am59 °FPassing clouds.18 mph72%29.89 "HgN/A
4:30 am59 °FPassing clouds.17 mph72%29.89 "HgN/A
4:00 am59 °FPassing clouds.15 mph72%29.89 "HgN/A
3:30 am59 °FPassing clouds.16 mph68%29.89 "HgN/A
3:00 am59 °FPassing clouds.16 mph68%29.89 "HgN/A
2:30 am57 °FPassing clouds.13 mph72%29.92 "HgN/A
2:00 am57 °FPassing clouds.13 mph67%29.92 "HgN/A
1:30 am57 °FPassing clouds.9 mph67%29.92 "HgN/A
1:00 am57 °FPassing clouds.8 mph67%29.92 "HgN/A
Weather by CustomWeather, © 2017

See weather overviewHow to use our weather pages